Orange City, IA

5:32 PM CDT on July 29, 2016 (GMT -0500)
Orange City Municipal

Weather History for KORC - January, 2013

Change the Weather History Date:

Sunday, January 20, 2013

  Actual Average Record
Temperature  
Mean Temperature 2 °F -  
Max Temperature 10 °F 25 °F 42 °F (2002)
Min Temperature -7 °F 9 °F -7 °F (2001)
Degree Days  
Heating Degree Days 64    
Moisture  
Dew Point 0 °F    
Average Humidity 75    
Maximum Humidity 92    
Minimum Humidity 62    
Precipitation  
Precipitation 0.00 in - - ()
Sea Level Pressure  
Sea Level Pressure 30.34 in    
Wind  
Wind Speed 10 mph (NW)    
Max Wind Speed 16 mph    
Max Gust Speed 20 mph    
Visibility 8 miles    
Events Snow    
Averages and records for this station are not official NWS values.
T = Trace of Precipitation, MM = Missing Value Source: NWS Daily Summary

Daily Weather History Graph

Daily Weather History Graph

Search for Another Location

Airport or City:

Trip Planner

Search our weather history database for the weather conditions in past years. The results will help you decide how hot, cold, wet, or windy it might be!

Date:

Astronomy

Jan. 20, 2013 Rise Set
Actual Time 7:49 AM CST 5:21 PM CST
Civil Twilight 7:18 AM CST 5:52 PM CST
Nautical Twilight 6:43 AM CST 6:27 PM CST
Astronomical Twilight 6:10 AM CST 7:01 PM CST
Moon 12:23 PM CST (1/20) 2:22 AM CST (1/20)
Length of Visible Light 10h 34m
Length of Day
9h 32m
Waxing Gibbous, 66% of the Moon is Illuminated
Jan 20
Waxing Gibbous
Jan 26
Full
Feb 3
Last Quarter
Feb 10
New
Feb 17
First Quarter

Hourly Weather History & Observations

Time (CST) Temp. Windchill Dew Point Humidity Pressure Visibility Wind Dir Wind Speed Gust Speed Precip Events Conditions
12:15 AM 10.4 °F -4.8 °F -0.4 °F 62% 30.31 in 10.0 mi NNW 12.7 mph - N/A   Clear
12:35 AM 10.4 °F -3.3 °F -0.4 °F 62% 30.31 in 10.0 mi NNW 10.4 mph 19.6 mph N/A   Clear
12:55 AM 8.6 °F -6.3 °F -0.4 °F 67% 30.31 in 10.0 mi NNW 11.5 mph - N/A   Clear
1:15 AM 8.6 °F -5.5 °F -0.4 °F 67% 30.31 in 10.0 mi NNW 10.4 mph - N/A   Clear
1:35 AM 8.6 °F -5.5 °F -0.4 °F 67% 30.31 in 10.0 mi NNW 10.4 mph - N/A   Clear
2:15 AM 8.6 °F -6.3 °F -2.2 °F 62% 30.31 in 10.0 mi NNW 11.5 mph - N/A   Clear
2:35 AM 8.6 °F -5.5 °F -2.2 °F 62% 30.31 in 10.0 mi North 10.4 mph - N/A   Clear
2:55 AM 6.8 °F -7.8 °F -2.2 °F 67% 30.32 in 10.0 mi NNW 10.4 mph - N/A   Clear
3:15 AM 8.6 °F -1.3 °F -2.2 °F 62% 30.32 in 10.0 mi NNW 5.8 mph - N/A   Clear
3:35 AM 8.6 °F -3.7 °F -2.2 °F 62% 30.32 in 10.0 mi NNW 8.1 mph - N/A   Clear
3:55 AM 8.6 °F -3.7 °F -0.4 °F 67% 30.32 in 10.0 mi North 8.1 mph - N/A   Scattered Clouds
4:15 AM 8.6 °F -3.7 °F -0.4 °F 67% 30.31 in 10.0 mi NNW 8.1 mph - N/A   Scattered Clouds
4:35 AM 8.6 °F -3.7 °F -0.4 °F 67% 30.30 in 10.0 mi North 8.1 mph - N/A   Scattered Clouds
4:55 AM 6.8 °F -3.5 °F -0.4 °F 72% 30.29 in 10.0 mi North 5.8 mph - N/A   Clear
5:15 AM 6.8 °F -4.8 °F -2.2 °F 67% 30.31 in 10.0 mi NNW 6.9 mph - N/A   Mostly Cloudy
5:35 AM 6.8 °F -2.0 °F -2.2 °F 67% 30.30 in 10.0 mi NNW 4.6 mph - N/A   Overcast
6:15 AM 8.6 °F -1.3 °F -0.4 °F 67% 30.31 in 10.0 mi NW 5.8 mph - N/A   Overcast
6:35 AM 8.6 °F -2.6 °F -0.4 °F 67% 30.32 in 10.0 mi NW 6.9 mph - N/A   Overcast
7:15 AM 8.6 °F -2.6 °F 1.4 °F 73% 30.33 in 3.0 mi NNW 6.9 mph - N/A Snow Light Snow
7:35 AM 6.8 °F -3.5 °F 1.4 °F 79% 30.32 in 2.0 mi North 5.8 mph - N/A Snow Light Snow
7:55 AM 6.8 °F -3.5 °F 1.4 °F 79% 30.33 in 2.0 mi North 5.8 mph - N/A Snow Light Snow
8:15 AM 8.6 °F 0.1 °F 3.2 °F 79% 30.33 in 1.2 mi NNW 4.6 mph - N/A Snow Light Snow
8:35 AM 8.6 °F 2.0 °F 3.2 °F 79% 30.33 in 0.8 mi NW 3.5 mph - N/A Snow Light Snow
8:55 AM 8.6 °F 2.0 °F 1.4 °F 73% 30.34 in 1.0 mi NNW 3.5 mph - N/A Snow Light Snow
9:15 AM 8.6 °F 2.0 °F 3.2 °F 79% 30.34 in 0.8 mi NNW 3.5 mph - N/A Snow Light Snow
9:35 AM 8.6 °F - 1.4 °F 73% 30.35 in 0.8 mi Calm Calm - N/A Snow Light Snow
9:55 AM 8.6 °F -1.3 °F 3.2 °F 79% 30.38 in 0.8 mi NW 5.8 mph - N/A Snow Light Snow
10:15 AM 8.6 °F -1.3 °F 3.2 °F 79% 30.39 in 0.5 mi NNW 5.8 mph - N/A Snow Snow
10:35 AM 8.6 °F -1.3 °F 3.2 °F 79% 30.40 in 1.0 mi NNW 5.8 mph - N/A Snow Light Snow
10:55 AM 8.6 °F -1.3 °F 3.2 °F 79% 30.40 in 1.5 mi NW 5.8 mph - N/A Snow Light Snow
11:15 AM 8.6 °F -2.6 °F 3.2 °F 79% 30.40 in 2.0 mi NW 6.9 mph - N/A Snow Light Snow
11:35 AM 8.6 °F -4.7 °F 3.2 °F 79% 30.40 in 2.5 mi NW 9.2 mph - N/A Snow Light Snow
12:15 PM 8.6 °F -4.7 °F 3.2 °F 79% 30.38 in 7.0 mi NW 9.2 mph - N/A Snow Light Snow
12:35 PM 8.6 °F -4.7 °F 3.2 °F 79% 30.38 in 10.0 mi NW 9.2 mph - N/A Snow Light Snow
12:55 PM 10.4 °F -4.1 °F 3.2 °F 73% 30.37 in 7.0 mi NW 11.5 mph - N/A Snow Light Snow
1:15 PM 10.4 °F -4.1 °F 5.0 °F 79% 30.36 in 7.0 mi WNW 11.5 mph - N/A Snow Light Snow
1:35 PM 10.4 °F -6.0 °F 5.0 °F 79% 30.36 in 7.0 mi NW 15.0 mph - N/A Snow Light Snow
1:55 PM 10.4 °F -6.0 °F 5.0 °F 79% 30.36 in 7.0 mi NW 15.0 mph - N/A Snow Light Snow
2:15 PM 10.4 °F -4.1 °F 5.0 °F 79% 30.35 in 10.0 mi WNW 11.5 mph - N/A   Overcast
2:35 PM 10.4 °F -4.8 °F 5.0 °F 79% 30.35 in 10.0 mi WNW 12.7 mph - N/A   Overcast
3:15 PM 10.4 °F -6.6 °F 3.2 °F 73% 30.35 in 10.0 mi NW 16.1 mph - N/A   Overcast
3:35 PM 10.4 °F -5.4 °F 3.2 °F 73% 30.35 in 10.0 mi NW 13.8 mph 19.6 mph N/A   Mostly Cloudy
3:55 PM 8.6 °F -7.0 °F 3.2 °F 79% 30.34 in 10.0 mi WNW 12.7 mph - N/A   Scattered Clouds
4:15 PM 8.6 °F -6.3 °F 3.2 °F 79% 30.33 in 10.0 mi NW 11.5 mph - N/A   Scattered Clouds
4:35 PM 8.6 °F -7.7 °F 1.4 °F 73% 30.34 in 10.0 mi NW 13.8 mph - N/A   Scattered Clouds
4:55 PM 6.8 °F -7.8 °F 1.4 °F 79% 30.34 in 10.0 mi WNW 10.4 mph - N/A   Clear
5:15 PM 3.2 °F -12.2 °F -0.4 °F 85% 30.34 in 10.0 mi WNW 10.4 mph - N/A   Clear
5:35 PM 3.2 °F -13.1 °F -2.2 °F 78% 30.34 in 10.0 mi WNW 11.5 mph - N/A   Clear
5:55 PM 3.2 °F -13.1 °F -0.4 °F 85% 30.34 in 10.0 mi West 11.5 mph - N/A   Scattered Clouds
6:15 PM 5.0 °F -10.8 °F -0.4 °F 78% 30.34 in 10.0 mi West 11.5 mph - N/A   Mostly Cloudy
6:35 PM 5.0 °F -10.0 °F -0.4 °F 78% 30.35 in 10.0 mi West 10.4 mph - N/A   Mostly Cloudy
6:55 PM 6.8 °F -9.3 °F 1.4 °F 79% 30.34 in 10.0 mi West 12.7 mph - N/A   Overcast
7:15 PM 6.8 °F -10.7 °F 1.4 °F 79% 30.34 in 10.0 mi West 15.0 mph - N/A   Overcast
7:35 PM 6.8 °F -6.9 °F 1.4 °F 79% 30.34 in 10.0 mi NW 9.2 mph - N/A   Scattered Clouds
7:55 PM 6.8 °F -7.8 °F -0.4 °F 72% 30.34 in 10.0 mi NW 10.4 mph - N/A   Clear
8:15 PM 5.0 °F -8.1 °F -0.4 °F 78% 30.34 in 10.0 mi NW 8.1 mph - N/A   Clear
8:35 PM 1.4 °F -11.3 °F -2.2 °F 85% 30.33 in 10.0 mi NW 6.9 mph - N/A   Clear
8:55 PM -7.6 °F -24.6 °F -9.4 °F 92% 30.32 in 10.0 mi WNW 9.2 mph - N/A   Clear
9:15 PM -2.2 °F -18.9 °F -7.6 °F 78% 30.32 in 10.0 mi WNW 10.4 mph - N/A   Scattered Clouds
9:35 PM -5.8 °F -21.2 °F -9.4 °F 84% 30.33 in 10.0 mi West 8.1 mph - N/A   Scattered Clouds
9:55 PM -5.8 °F -23.4 °F -9.4 °F 84% 30.33 in 10.0 mi WNW 10.4 mph - N/A   Scattered Clouds
10:15 PM 1.4 °F -18.2 °F -4.0 °F 78% 30.33 in 10.0 mi WNW 16.1 mph - N/A   Clear
10:35 PM 1.4 °F -17.6 °F -4.0 °F 78% 30.33 in 10.0 mi NW 15.0 mph - N/A   Clear
10:55 PM 1.4 °F -16.9 °F -5.8 °F 72% 30.34 in 10.0 mi NW 13.8 mph - N/A   Clear
11:15 PM -0.4 °F -19.2 °F -7.6 °F 72% 30.34 in 10.0 mi NW 13.8 mph - N/A   Clear
11:35 PM -0.4 °F -19.9 °F -7.6 °F 72% 30.35 in 10.0 mi WNW 15.0 mph - N/A   Clear
11:55 PM -0.4 °F -19.9 °F -7.6 °F 72% 30.35 in 10.0 mi NW 15.0 mph - N/A   Clear